Voltar ao catálogo

STARLINK-34243

AtivoComunicaçõesVLEO
NORAD 64361·PAYLOAD·🇺🇸 United States

Lançado Jun 13, 2025 de Vandenberg Space Force Base

Loading…

Próximas Passagens (próximas 24 horas)

TLE

AtualizadoSource: CelesTrak SupGP

Época: Sep 15, 2026, 02:31 UTC

1 64361C 25126T   26258.10534722 -.00011030  00000+0 -38366-3 0  2586
2 64361  70.0007 274.9905 0003460 268.4630  20.3700 15.29588269    12

Acompanhe STARLINK-34243 em tempo real com AllMySat

Download on the App Store